Retour au catalogue

STARLINK-30124

ActifCommunicationsVLEO
NORAD 56690·PAYLOAD·🇺🇸 United States

Lancé May 19, 2023 depuis Cape Canaveral Space Force Station

Loading…

Prochains Passages (prochaines 24 heures)

TLE

FraisSource: CelesTrak SupGP

Époque: Sep 15, 2026, 02:14 UTC

1 56690C 23067C   26258.09354167  .00021016  00000+0  76124-3 0  2582
2 56690  43.0022 291.6766 0001598 265.6269 184.6155 15.27566754    14

Suivez STARLINK-30124 en temps réel avec AllMySat

Download on the App Store